Погода в Кингстоне-апон-Темс

Великобритания     51°24′39″N   0°17′29″E
темп.,
°C
ветер,
м/с
пор.,
м/с
влажн.,
%
обл.,
%
осадки,
мм/ч
давл.,
гПа
погр.,
м
20 января, ср
ср2000:00+11ююз91883100 1.9 9961243
03:00+11ююз91883100 1.1 9931238
06:00+11ююз81784100 1.6 9921236
09:00+10ююз81784100 1.5 9901243
12:00+10ююз81779100 2.7 9881206
15:00+10ююз81781100 1.7 9851292
18:00+10ююз81682100 4.6 9831294
21:00+10ю102078100 1.4 9781618
21 января, чт
чт2100:00+6з111681100 6.6 9751055
03:00+5зюз10176791 0.3 9821518
06:00+5юз8166749 0.3 9861504
09:00+6юз81767100 0.0 9861781
12:00+8зюз9175784 0.0 9871803
15:00+8юз6115991 0.0 9861417
18:00+7зюз366695 0.0 985832
21:00+6з4767100 0.0 985902
22 января, пт
пт2200:00+4з497361 0.0 988575
03:00+3зюз49750 0.0 989487
06:00+3зюз37780 0.0 990296
09:00+3з24799 0.0 992200
12:00+5з236541 0.0 992431
15:00+6зсз236110 0.0 992752
18:00+4з23745 0.0 994133
21:00+3зюз137915 0.0 995113
23 января, сб
сб2300:00+2зюз128052 0.0 995103
03:00+2з117998 0.0 99538
06:00+2с127199 0.0 99596
09:00+2ссз2371100 0.0 997234
12:00+3ссз2461100 0.0 998555
15:00+4сз2458100 0.0 998810
18:00+2зсз256798 0.0 999311
21:00+1зюз12700 0.0 99987
24 января, вс
вс2400:000ююз23721 0.0 999127
03:00+1ююв2468100 0.0 998190
06:00+1юв2667100 0.0 996236
09:000вюв129999 3.6 996122
12:00+1сз3691100 3.8 997430
15:00+3сз376857 0.0 998663
18:00+1з3117329 0.0 1000606
21:00+2зюз41377100 0.1 1001874